Location: Unspecified
(0.0000°N, 0.0000°E)
Time: 17:34:28
(UTC+00:00)

Vanguard 2 - Pass Details

Date: 14 December 2017
Orbit: 553 x 2940 km, 32.9° (Epoch: 18 January)

Event Time Altitude Azimuth Distance (km) Brightness Sun altitude
Exits shadow 03:56:59 - 235° (SW) 4,983 11.4 -26.8°
Reaches altitude 10° 04:02:07 10° 214° (SW) 4,563 11.4 -25.7°
Maximum altitude 04:08:30 15° 185° (S) 4,669 11.7 -24.2°
Drops below altitude 10° 04:16:00 10° 156° (SSE) 5,470 12.5 -22.5°
Sets 04:24:19 0° 135° (SE) 6,749 13.6 -20.7°
